Overview Statistics Trail Chart Weather Telemetry Raw packets
 

This is the latest recevied weather packets stored in our database for station/object N5SOR-1. If no packets are shown the sender has not sent any weather packets the latest 10 day(s).

<< 1 2 3 4 >>
Time Temp. Humidity Pressure Rain* Wind** Luminosity Snow
1788579099 25.56° C 55% 1011.1 hPa 0 mm - 0 W/m² -
1788578439 26.11° C 56% 1011.3 hPa 0 mm - 0 W/m² -
1788577778 26.67° C 54% 1011.2 hPa 0 mm - 0 W/m² -
1788577117 26.67° C 52% 1011.1 hPa 0 mm - 0 W/m² -
1788576457 27.22° C 50% 1010.9 hPa 0 mm - 0 W/m² -
1788575796 26.67° C 52% 1010.5 hPa 0 mm - 0 W/m² -
1788575136 25° C 61% 1010.3 hPa 0 mm - 0 W/m² -
1788574475 25.56° C 58% 1010.3 hPa 0 mm - 0 W/m² -
1788573814 25.56° C 59% 1010.1 hPa 0 mm - 0 W/m² -
1788573154 23.33° C 58% 1009.7 hPa 0 mm - 0 W/m² -
1788572493 23.33° C 65% 1009.7 hPa 0 mm - 0 W/m² -
1788571833 22.22° C 68% 1009.3 hPa 0 mm - 0 W/m² -
1788571172 23.89° C 60% 1009.4 hPa 0 mm - 0 W/m² -
1788570511 26.11° C 56% 1009.3 hPa 0 mm - 0 W/m² -
1788569851 29.44° C 44% 1009.2 hPa 0 mm - 0 W/m² -
1788569190 30.56° C 39% 1008.6 hPa 0 mm - 9 W/m² -
1788568529 31.67° C 37% 1008.4 hPa 0 mm - 88 W/m² -
1788567869 32.78° C 32% 1008.3 hPa 0 mm - 21 W/m² -
1788567208 32.78° C 32% 1008.3 hPa 0 mm - 23 W/m² -
1788566548 33.33° C 32% 1008.1 hPa 0 mm - 28 W/m² -
1788565887 33.33° C 31% 1008 hPa 0 mm - 54 W/m² -
1788565226 33.89° C 31% 1007.9 hPa 0 mm - 86 W/m² -
1788564566 35° C 28% 1007.8 hPa 0 mm - 450 W/m² -
1788563905 35° C 29% 1007.9 hPa 0 mm - 501 W/m² -
1788563245 34.44° C 30% 1007.7 hPa 0 mm - 139 W/m² -

* Rain latest hour (hover to see other rain measurements)
** Current wind speed in m/s (hover to see current wind gust speed)